Date,TemperatureHighF,TemperatureAvgF,TemperatureLowF,DewpointHighF,DewpointAvgF,DewpointLowF,HumidityHigh,HumidityAvg,HumidityLow,PressureMaxIn,PressureMinIn,WindSpeedMaxMPH,WindSpeedAvgMPH,GustSpeedMaxMPH,PrecipitationSumIn
2013-1-1,40.9,34.0,28.4,34.7,30.5,26.5,93,87,76,30.12,30.02,2,0,2,0.00
2013-1-2,38.2,31.3,26.1,32.9,27.2,23.1,91,85,76,30.02,29.86,3,0,3,0.00
2013-1-3,41.2,35.1,25.6,33.0,29.7,22.5,89,81,72,29.92,29.81,2,0,2,0.02
2013-1-4,50.8,44.5,39.2,46.8,41.9,36.8,95,91,86,30.00,29.85,2,0,2,0.00
2013-1-5,43.2,40.0,38.5,40.2,36.0,34.7,90,86,81,29.89,29.84,2,0,2,0.00
2013-1-6,49.5,45.1,38.7,45.5,42.3,36.3,93,90,85,29.92,29.78,5,0,5,0.02
2013-1-7,52.4,49.2,47.0,49.2,47.0,44.6,95,92,89,29.91,29.72,9,1,9,0.10
2013-1-8,60.1,53.0,49.1,54.6,49.8,46.9,94,89,81,29.89,29.65,9,2,9,0.03
2013-1-9,39.8,39.1,38.5,37.1,36.6,35.8,92,90,89,29.68,29.65,3,0,3,0.02
2013-1-10,46.8,40.8,36.5,43.1,38.4,34.2,94,91,84,29.80,29.67,3,0,3,0.10
2013-1-11,40.5,34.0,28.8,36.8,31.2,26.4,95,90,80,29.99,29.79,2,0,2,0.01
2013-1-12,37.6,31.9,26.8,35.0,29.9,25.3,94,92,88,30.07,30.00,2,0,2,0.00
2013-1-13,36.7,33.4,29.9,33.1,30.0,27.5,93,87,84,30.17,30.07,2,0,2,0.00
2013-1-14,39.4,34.2,29.5,34.9,30.8,27.0,90,87,83,30.25,30.19,3,0,3,0.00
2013-1-15,43.4,39.3,35.3,39.5,36.3,32.8,92,89,84,30.33,30.22,2,0,2,0.00
2013-1-16,38.2,36.4,35.1,35.7,34.1,32.9,93,91,89,30.32,30.19,2,0,2,0.00
2013-1-17,37.4,35.2,34.0,35.3,33.4,32.4,95,93,91,30.13,30.01,2,0,2,0.01
2013-1-18,38.7,35.4,32.9,36.2,33.4,31.2,95,93,90,30.01,29.96,2,0,2,0.00
2013-1-19,36.4,33.6,31.3,34.2,31.6,29.8,94,93,91,30.03,29.96,2,0,2,0.00
2013-1-20,36.0,32.8,30.6,33.8,31.0,29.0,94,93,90,30.04,29.93,2,0,2,0.00
2013-1-21,35.1,30.7,27.7,32.9,28.9,25.9,95,93,90,29.95,29.84,2,0,2,0.00
2013-1-22,36.2,32.1,28.6,34.0,30.2,27.0,94,93,91,29.86,29.63,2,0,2,0.00
2013-1-23,38.5,37.0,34.2,36.6,35.1,32.3,94,93,91,29.84,29.57,2,0,2,0.05
2013-1-24,43.0,40.0,34.9,41.1,38.7,33.3,96,95,93,29.89,29.79,3,0,3,0.20
2013-1-25,53.1,46.2,38.2,51.9,45.0,36.5,97,96,94,29.82,29.65,2,0,2,0.17
2013-1-26,47.7,42.9,39.2,45.6,41.3,37.6,96,94,90,29.74,29.65,3,0,3,0.33
2013-1-27,46.4,43.8,38.5,44.1,41.8,36.9,96,92,89,29.85,29.76,4,1,4,0.08
2013-1-28,46.3,44.2,41.4,44.6,42.6,40.1,95,94,93,29.91,29.83,3,0,3,0.07
2013-1-29,49.9,47.2,43.4,47.0,44.8,41.0,95,91,87,30.19,30.01,4,0,4,0.05
2013-1-30,50.8,47.9,44.6,47.6,45.4,42.8,93,91,88,30.18,30.13,4,1,4,0.01
2013-1-31,55.4,50.5,44.3,50.2,46.9,42.7,96,88,78,30.13,30.01,2,0,2,0.01